Starlink 5681

operational
NORAD ID: 55469 Int'l Des: 2023-015 Owner: SPXS Country: US Constellation: starlink
LEOCIRCULAR

Über Starlink 5681

Beschreibung wird geladen...

Live-Position

3D-Globus wird geladen...

Nächste Überflüge

Höhenverlauf

Altitude vs Time

uPlot chart will show altitude changes over time

Zweizeiliger Elementsatz

1 55469U 23015W 26033.37791535 .00001387 00000-0 11769-3 0 9990
2 55469 43.0026 157.7395 0001169 275.1901 84.8807 15.02540872165444
Epoch: 2. Feb. 2026 • Age: 22 hours

Aktueller Status

Höhe 570.3 km
Geschwindigkeit 7.58 km/s
Subsatellitenpunkt -40.05°S, 150.87°W
Startdatum 2. Feb. 2023
Alter 3 years
Typ internet

Technische Details

Klassifizierung Payload
Masse 305.00 kg
Trockenmasse 290.00 kg
Gesamtmasse 305.00 kg
Länge 0.20 m
Durchmesser 2.80 m
Spannweite 9.00 m
Form Box + pan
Hersteller SPXS
Bus-Typ Starlink
Phasenstatus In Orbit
Besitzer/Staat SPXS/US

Große Konstellationen

Loading constellations...